Regional Weather Roundup
Issued by NWS

Home | Current Version | Previous Version | Text Only | Print | Product List | Glossary On
Versions: 1 2 3 4 5 6 7 8 9 10 11 12 13 14 15 16 17 18 19 20 21 22 23 24 25 26 27 28 29 30 31 32 33 34 35 36 37 38 39 40 41 42 43 44 45 46 47 48 49 50
000
ASUS46 KPQR 201910
RWROR

OREGON REGIONAL WEATHER ROUNDUP
NATIONAL WEATHER SERVICE PORTLAND OR
1200 PM PDT WED AUG 20 2014

NOTE: "FAIR" INDICATES FEW OR NO CLOUDS BELOW 12,000 FEET WITH
NO SIGNIFICANT WEATHER AND/OR OBSTRUCTIONS TO VISIBILITY.

ORZ001>013-202000-
NORTHWEST OREGON


CITY           SKY/WX    TMP DP  RH WIND       PRES   REMARKS
ASTORIA        PTSUNNY   64  53  67 W8G20     30.00R
NEWPORT        SUNNY     63  57  82 NW8       30.04S
PORTLAND       MOSUNNY   69  49  48 VRB5      30.00R
VANCOUVER WA   PTSUNNY   69  48  47 W9        29.99
SCAPPOOSE      PTSUNNY   69  48  47 N8        29.99R
HILLSBORO      MOSUNNY   69  48  47 VRB5      29.99S
AURORA         CLOUDY    65  54  67 VRB5      30.01S
MCMINNVILLE    MOSUNNY   70  51  51 VRB3      30.00S
SALEM          PTSUNNY   70  51  51 NW5       29.98S
CORVALLIS      CLOUDY    70  55  60 NW3       30.00S
EUGENE         PTSUNNY   72  56  57 NW6       29.99S
$$

ORZ021-028-202000-
SOUTHWEST OREGON


CITY           SKY/WX    TMP DP  RH WIND       PRES   REMARKS
NORTH BEND     SUNNY     68  61  77 N13       29.99F
BROOKINGS      PTCLDY    63  58  83 S6        29.93S
ROSEBURG       CLOUDY    72  57  59 NE5       29.97F
SEXTON SUMMIT  SUNNY     65  55  70 N6        30.03S
MEDFORD        MOSUNNY   79  55  43 N3        29.92F
$$

ORZ009-041-202000-
COLUMBIA GORGE


CITY           SKY/WX    TMP DP  RH WIND       PRES   REMARKS
TROUTDALE      PTSUNNY   68  49  50 VRB3      29.99S
THE DALLES     MOSUNNY   75  50  41 NW16      29.87F
$$

ORZ029>031-042>050-061>064-202000-
EASTERN OREGON


CITY           SKY/WX    TMP DP  RH WIND       PRES   REMARKS
REDMOND        SUNNY     75  47  36 NW13      29.94S
BEND           PTCLDY    68  48  49 E3        29.97F
KLAMATH FALLS  SUNNY     73  48  41 NW3       29.99S
LAKEVIEW       SUNNY     75  46  35 SE6       30.02F
HERMISTON      CLOUDY    78  47  33 W15       29.83F
PENDLETON      CLOUDY    76  42  29 SW18G29   29.86F
JOHN DAY       CLEAR     75  49  38 W7        29.93F
MEACHAM        CLOUDY    68  48  48 VRB5      29.95S
LA GRANDE      MOSUNNY   73  43  33 NW18      29.87F
BAKER CITY     SUNNY     74  50  42 W5        29.90F
BURNS          SUNNY     76  45  33 S14G20    29.95F
ROME             N/A     79  43  27 VRB7      29.92F
ONTARIO        SUNNY     82  50  32 VRB6      29.85F
$$


USA.gov is the U.S. government's official web portal to all federal, state and local government web resources and services.